[[{"header":{"parameterUnit":"m.s-1","parameterCategory":1,"la1":30.2991,"la2":30.254,"lo1":-89.0895,"lo2":-89.0444,"dy":0.0017,"dx":0.0017,"nx":28,"ny":28,"refTime":"2025-08-03T03:00:00:Z","depth":0,"parameterNumber":2,"parameterNumberName":"U-component_of_WINDS"},"data":[0,0,0,0,0,0,0,0,0,0,0,0,0,0,0,0,0,0,0,0,0,0,0,0,0,0,0,0,0,0,0,0,0,0,0,0,0,0,0,0,0,0,0,0,0,0,0,0,0,0,0,0,0,0,0,0,0,0,-0.0508,-0.0508,0,-0.0519,-0.0519,-0.0519,-0.0537,-0.0537,-0.0537,-0.0538,-0.0545,-0.0545,-0.0545,0,0,0,0,0,0,0,0,0,0,0,0,0,-0.0501,-0.0501,-0.0508,-0.0508,-0.0508,-0.0519,-0.0519,-0.0519,-0.0537,-0.0537,-0.0537,-0.0538,-0.0545,-0.0545,-0.0545,0,0,0,0,0,0,0,0,0,0,0,0,0,-0.0507,-0.0501,-0.0508,-0.0518,-0.0519,-0.0519,-0.0519,-0.0519,-0.0537,-0.0537,-0.0538,-0.0538,-0.0545,-0.0545,-0.0545,-0.0534,0,0,-0.0545,-0.0545,0,0,0,0,0,0,0,0,-0.0506,-0.0507,-0.0517,-0.0518,-0.0519,-0.0527,-0.0519,-0.0524,-0.0536,-0.053,-0.0538,-0.0538,-0.0539,-0.0539,-0.054,-0.0534,-0.0535,-0.0545,-0.0545,-0.0544,-0.0544,0,0,0,0,0,0,0,-0.0506,-0.0507,-0.0512,-0.0517,-0.0518,-0.0522,-0.0523,-0.052,-0.0531,-0.0531,-0.0532,-0.0533,-0.0539,-0.054,-0.054,-0.0535,-0.0545,-0.0545,-0.0544,-0.0544,-0.0522,-0.0522,0,0,0,0,0,0,-0.0504,-0.0506,-0.0512,-0.0512,-0.0514,-0.0522,-0.0523,-0.0524,-0.0531,-0.0533,-0.0533,-0.0534,-0.054,-0.054,-0.054,-0.0529,-0.0544,-0.0544,-0.0544,-0.0523,-0.0522,-0.0522,0,0,0,0,0,0,-0.0504,-0.0505,-0.0511,-0.051,-0.0511,-0.0521,-0.0522,-0.0524,-0.0524,-0.0533,-0.0535,-0.0531,-0.054,-0.0541,-0.0536,-0.053,-0.0544,-0.0544,-0.0523,-0.0523,-0.0522,-0.0505,0,0,0,0,0,0,-0.0504,-0.0504,-0.0501,-0.0509,-0.0511,-0.0507,-0.0521,-0.0524,-0.0525,-0.0526,-0.0532,-0.0534,-0.0541,-0.0536,-0.0536,-0.053,-0.0544,-0.0524,-0.0523,-0.0522,-0.0507,-0.0504,-0.0502,0,0,0,0,0,-0.0503,-0.0494,-0.05,-0.0501,-0.0506,-0.0507,-0.0507,-0.0517,-0.0524,-0.052,-0.0526,-0.0534,-0.053,-0.0536,-0.0535,-0.0529,-0.0524,-0.0523,-0.0522,-0.0508,-0.0505,-0.0502,0,0,0,0,0,0,-0.0483,-0.0496,-0.0502,-0.0496,-0.05,-0.051,-0.0505,-0.0513,-0.0514,-0.0516,-0.0526,-0.0528,-0.0522,-0.0525,-0.053,-0.0519,-0.0529,-0.0527,-0.0518,-0.0515,-0.0513,-0.0512,-0.0544,0,0,0,0,0,-0.0478,-0.0478,-0.0489,-0.0482,-0.0484,-0.0494,-0.0495,-0.0502,-0.0506,-0.0508,-0.0513,-0.0516,-0.0516,-0.0516,-0.0516,-0.0507,-0.0509,-0.0503,-0.05,-0.0499,-0.0497,-0.0494,-0.0492,-0.0518,-0.0518,-0.0518,0,0,-0.0467,-0.0474,-0.0473,-0.0478,-0.0482,-0.0482,-0.0495,-0.0494,-0.0494,-0.0507,-0.0504,-0.0508,-0.0512,-0.0506,-0.0503,-0.0508,-0.0491,-0.0497,-0.0496,-0.0496,-0.0493,-0.0491,-0.0488,-0.0517,-0.0517,-0.0518,0,0,-0.0447,-0.0452,-0.0448,-0.0452,-0.0459,-0.0466,-0.0465,-0.0474,-0.0478,-0.0475,-0.0486,-0.0485,-0.0484,-0.0487,-0.0489,-0.0472,-0.048,-0.0472,-0.046,-0.0457,-0.0455,-0.0453,-0.0448,-0.0446,-0.047,-0.047,-0.047,0,-0.0432,-0.0433,-0.0444,-0.0443,-0.0445,-0.0459,-0.0455,-0.0458,-0.0464,-0.0465,-0.0471,-0.0472,-0.0475,-0.0471,-0.0467,-0.0467,-0.0467,-0.0471,-0.0455,-0.0453,-0.0451,-0.0447,-0.0445,-0.047,-0.047,-0.047,-0.047,0,-0.0415,-0.0415,-0.0411,-0.0418,-0.042,-0.0417,-0.0428,-0.0428,-0.0435,-0.0442,-0.0439,-0.0445,-0.0447,-0.0446,-0.0452,-0.0443,-0.0446,-0.0453,-0.0462,-0.0448,-0.0444,-0.0442,-0.0468,-0.0469,-0.0469,-0.0469,0,0,-0.0381,-0.0397,-0.0395,-0.0399,-0.0409,-0.0409,-0.0407,-0.0411,-0.0411,-0.0415,-0.0413,-0.0414,-0.0421,-0.0422,-0.0429,-0.0427,-0.0414,-0.0434,-0.0434,-0.0431,-0.0405,-0.04,-0.0398,-0.042,-0.0419,-0.0419,-0.0405,0,-0.0363,-0.0362,-0.0373,-0.0369,-0.037,-0.0384,-0.0382,-0.0387,-0.0394,-0.0395,-0.0401,-0.0402,-0.0411,-0.0412,-0.041,-0.0416,-0.0409,-0.0417,-0.0418,-0.0418,-0.0417,-0.0396,-0.039,-0.0377,-0.0404,-0.0403,-0.0403,0,-0.0342,-0.0348,-0.0343,-0.0355,-0.0356,-0.0354,-0.0359,-0.036,-0.0367,-0.0372,-0.0375,-0.0383,-0.0382,-0.0391,-0.039,-0.0395,-0.0396,-0.0399,-0.0399,-0.04,-0.041,-0.0396,-0.0373,-0.0371,-0.04,-0.0401,-0.0401,0,-0.032,-0.0325,-0.0324,-0.0327,-0.034,-0.0339,-0.0344,-0.0351,-0.0353,-0.0357,-0.0359,-0.0362,-0.0364,-0.0366,-0.0376,-0.0382,-0.0373,-0.0383,-0.0377,-0.0377,-0.0375,-0.0375,-0.0352,-0.0375,-0.0375,-0.0375,-0.0375,0,-0.0299,-0.0296,-0.0314,-0.0313,-0.0311,-0.0324,-0.0321,-0.0327,-0.0334,-0.0334,-0.0346,-0.0346,-0.0358,-0.0359,-0.0366,-0.0365,-0.0365,-0.0369,-0.0371,-0.0368,-0.0368,-0.0369,-0.037,-0.0374,-0.0374,-0.0375,-0.0375,0,-0.0273,-0.0285,-0.0285,-0.0298,-0.0301,-0.0298,-0.0309,-0.0309,-0.0317,-0.0317,-0.0318,-0.033,-0.0332,-0.0342,-0.0346,-0.0351,-0.0347,-0.035,-0.0345,-0.0347,-0.034,-0.0341,-0.0317,-0.0315,-0.0339,-0.0339,-0.0339,0,-0.0259,-0.0258,-0.0271,-0.0273,-0.0279,-0.0281,-0.0284,-0.0297,-0.0299,-0.0308,-0.0306,-0.031,-0.0314,-0.0317,-0.0325,-0.0329,-0.0333,-0.0325,-0.0333,-0.0331,-0.0334,-0.0334,-0.0334,-0.0323,-0.0322,-0.0322,-0.0322,0,-0.0234,-0.024,-0.0245,-0.0252,-0.0255,-0.0261,-0.0267,-0.0267,-0.0282,-0.0284,-0.0287,-0.029,-0.0296,-0.03,-0.0305,-0.0309,-0.0318,-0.0319,-0.0318,-0.0315,-0.0313,-0.0315,-0.034,-0.0319,-0.032,-0.032,-0.032,-0.032,-0.0214,-0.0214,-0.0224,-0.0229,-0.0236,-0.0241,-0.0243,-0.0251,-0.0255,-0.0261,-0.0268,-0.0271,-0.0279,-0.0287,-0.0292,-0.0294,-0.0298,-0.0297,-0.0296,-0.0296,-0.0295,-0.0312,-0.0295,-0.0295,-0.0295,-0.0295,-0.0295,0,-0.019,-0.0198,-0.0202,-0.0212,-0.0216,-0.0225,-0.0233,-0.0235,-0.0238,-0.0245,-0.0249,-0.0254,-0.0258,-0.0267,-0.0272,-0.0272,-0.0276,-0.0273,-0.0273,-0.0275,-0.029,-0.0291,-0.027,-0.027,-0.027,-0.027,-0.027,-0.027,-0.0178,-0.0179,-0.0187,-0.0192,-0.0199,-0.0203,-0.0207,-0.0213,-0.0219,-0.0224,-0.0228,-0.0235,-0.0243,-0.0249,-0.0253,-0.0256,-0.0257,-0.0253,-0.0257,-0.0271,-0.0273,-0.0275,-0.0276,-0.0253,-0.0253,-0.0241,-0.0241,-0.0241]},{"header":{"parameterUnit":"m.s-1","parameterCategory":1,"la1":30.2991,"la2":30.254,"lo1":-89.0895,"lo2":-89.0444,"dy":0.0017,"dx":0.0017,"nx":28,"ny":28,"refTime":"2025-08-03T03:00:00:Z","depth":0,"parameterNumber":3,"parameterNumberName":"V-component_of_WINDS"},"data":[0,0,0,0,0,0,0,0,0,0,0,0,0,0,0,0,0,0,0,0,0,0,0,0,0,0,0,0,0,0,0,0,0,0,0,0,0,0,0,0,0,0,0,0,0,0,0,0,0,0,0,0,0,0,0,0,0,0,0.9326,0.9324,0,0.9192,0.9191,0.9189,0.9083,0.9082,0.9081,0.908,0.8939,0.8937,0.8934,0,0,0,0,0,0,0,0,0,0,0,0,0,0.9483,0.9481,0.9326,0.9324,0.9323,0.9193,0.9191,0.9189,0.9083,0.9082,0.9081,0.908,0.894,0.8937,0.8934,0,0,0,0,0,0,0,0,0,0,0,0,0,0.9389,0.948,0.9326,0.9254,0.9247,0.9193,0.9191,0.9188,0.9084,0.9082,0.9081,0.9079,0.8941,0.8937,0.8933,0.8939,0,0,0.8921,0.8919,0,0,0,0,0,0,0,0,0.9394,0.9383,0.9267,0.9259,0.925,0.9153,0.9194,0.9105,0.9084,0.9145,0.908,0.9078,0.9011,0.9001,0.898,0.8932,0.8926,0.892,0.8918,0.8916,0.8915,0,0,0,0,0,0,0,0.9401,0.9388,0.9273,0.9265,0.9255,0.9227,0.9212,0.9177,0.9089,0.914,0.9132,0.9118,0.9007,0.8984,0.8976,0.8924,0.892,0.8917,0.8914,0.8912,0.8869,0.887,0,0,0,0,0,0,0.9419,0.9394,0.9277,0.9269,0.932,0.9225,0.9208,0.9186,0.9089,0.9073,0.9119,0.9113,0.8992,0.8981,0.897,0.8966,0.8916,0.8912,0.891,0.8867,0.8869,0.887,0,0,0,0,0,0,0.9423,0.941,0.9283,0.9329,0.9311,0.9224,0.92,0.9184,0.9161,0.9073,0.9056,0.9113,0.899,0.8976,0.8946,0.896,0.891,0.8906,0.8866,0.8868,0.887,0.8962,0,0,0,0,0,0,0.9428,0.9412,0.9415,0.933,0.9309,0.9264,0.9201,0.9182,0.9155,0.9146,0.9063,0.9047,0.8988,0.8953,0.8942,0.8954,0.8903,0.8864,0.8867,0.8869,0.8957,0.8967,0.8975,0,0,0,0,0,0.9434,0.9447,0.9416,0.9402,0.9311,0.9265,0.9252,0.9185,0.9156,0.9157,0.91,0.905,0.8961,0.8951,0.8938,0.8948,0.8863,0.8866,0.8869,0.8953,0.8965,0.8975,0,0,0,0,0,0,0.9535,0.9434,0.9399,0.9385,0.9334,0.9247,0.9246,0.92,0.9155,0.9149,0.9065,0.9047,0.9026,0.8984,0.8975,0.8946,0.8905,0.8906,0.8974,0.8984,0.8993,0.9002,0.89,0,0,0,0,0,0.9555,0.9528,0.9441,0.9436,0.9413,0.9334,0.9311,0.9264,0.9207,0.9185,0.9125,0.9071,0.903,0.9005,0.8963,0.8951,0.8929,0.8951,0.896,0.8968,0.8969,0.8954,0.8962,0.888,0.888,0.888,0,0,0.9597,0.9539,0.9527,0.9455,0.941,0.938,0.9317,0.9289,0.9265,0.918,0.9148,0.9102,0.9036,0.9014,0.9001,0.8978,0.8986,0.8972,0.8979,0.8975,0.8958,0.8966,0.8973,0.8882,0.8882,0.8882,0,0,0.9658,0.9613,0.9603,0.9559,0.9491,0.9438,0.9436,0.9355,0.9321,0.9288,0.9222,0.9191,0.9124,0.9078,0.9046,0.9086,0.9036,0.9075,0.912,0.9107,0.9114,0.9119,0.9129,0.9134,0.9076,0.9076,0.9076,0,0.9718,0.9673,0.9603,0.9578,0.9547,0.9468,0.9455,0.9415,0.9337,0.9316,0.9292,0.9203,0.9153,0.9117,0.9127,0.9105,0.9096,0.9083,0.9119,0.9123,0.9127,0.9136,0.914,0.9081,0.908,0.908,0.9079,0,0.9749,0.9718,0.9717,0.9644,0.9613,0.9594,0.9518,0.9494,0.9448,0.9397,0.9361,0.9298,0.924,0.9228,0.9184,0.9185,0.9172,0.9135,0.9092,0.9141,0.9147,0.9151,0.9088,0.9086,0.9085,0.9084,0,0,0.9869,0.9756,0.9756,0.972,0.9639,0.9613,0.9589,0.9533,0.9512,0.946,0.9435,0.9379,0.9342,0.9306,0.9255,0.9244,0.9274,0.9207,0.9204,0.9219,0.9266,0.9293,0.9298,0.9242,0.9242,0.9243,0.9271,0,0.9915,0.9869,0.9803,0.9778,0.9746,0.967,0.9648,0.9595,0.9546,0.9509,0.9454,0.9414,0.9371,0.9348,0.9334,0.9274,0.9282,0.9272,0.9214,0.9213,0.9231,0.9302,0.9331,0.9361,0.9273,0.9274,0.9274,0,0.9962,0.9914,0.9886,0.9804,0.9788,0.977,0.9711,0.9679,0.9615,0.9579,0.9537,0.9482,0.9448,0.9411,0.9362,0.9356,0.9329,0.9296,0.9295,0.9285,0.9245,0.9291,0.9369,0.9372,0.9278,0.9278,0.9277,0,1.0048,0.9977,0.995,0.9922,0.9827,0.9815,0.9774,0.9709,0.9678,0.9625,0.9603,0.9548,0.9517,0.9474,0.9403,0.9384,0.936,0.9319,0.9327,0.9328,0.9324,0.9325,0.9395,0.9312,0.9311,0.9311,0.9311,0,1.0104,1.0089,0.9987,0.997,0.9949,0.9873,0.9854,0.9805,0.9747,0.9717,0.9648,0.9621,0.9531,0.9492,0.9436,0.9401,0.9389,0.9356,0.9341,0.9361,0.9365,0.934,0.9335,0.9312,0.9312,0.9312,0.9312,0,1.0197,1.0128,1.0093,1.0005,0.9982,0.9971,0.9894,0.9872,0.9819,0.9781,0.9768,0.9683,0.9633,0.9558,0.9487,0.9449,0.9421,0.9399,0.9444,0.9434,0.9445,0.9444,0.95,0.9502,0.9421,0.9422,0.9423,0,1.0236,1.0222,1.0132,1.0108,1.007,1.0031,0.9999,0.9922,0.9891,0.9815,0.9802,0.9747,0.9698,0.9622,0.9551,0.9495,0.9468,0.9492,0.9459,0.9478,0.9464,0.9465,0.9461,0.9499,0.95,0.9501,0.9502,0,1.0311,1.0277,1.0234,1.0179,1.0142,1.0095,1.0043,1.0027,0.9937,0.9905,0.9854,0.9817,0.9742,0.9687,0.962,0.9574,0.9522,0.9513,0.9511,0.953,0.9555,0.9538,0.9461,0.9512,0.9511,0.951,0.9509,0.9509,1.0375,1.0358,1.0291,1.0245,1.0198,1.0151,1.0126,1.0068,1.0025,0.9959,0.9916,0.9866,0.9797,0.9702,0.9659,0.9616,0.9594,0.9593,0.9592,0.9592,0.9597,0.9564,0.9604,0.9604,0.9603,0.9603,0.9603,0,1.0443,1.0396,1.0355,1.0285,1.0247,1.0203,1.0143,1.0114,1.0071,1.0013,0.9966,0.9905,0.985,0.9775,0.9714,0.9694,0.9668,0.968,0.9679,0.9669,0.9622,0.9628,0.9702,0.9702,0.9702,0.9702,0.9702,0.9702,1.0474,1.0442,1.04,1.0342,1.0294,1.0246,1.0214,1.0169,1.0122,1.0057,1.0011,0.9963,0.9896,0.9829,0.9776,0.9754,0.9733,0.9753,0.9724,0.9682,0.9672,0.9664,0.9669,0.975,0.975,0.9773,0.9773,0.9773]}]]